Tracking 19176 objects as of 25-May-2018
HD Live streaming from Space Station
objects crossing your sky now

WEOS

Track WEOS now!
10-day predictions
WEOS is classified as:


NORAD ID: 27599
Int'l Code: 2002-056C
Perigee: 794.2 km
Apogee: 807.4 km
Inclination: 98.4 °
Period: 100.7 minutes
Semi major axis: 7171 km
RCS: 0.3299 m2 (medium)
Launch date: December 14, 2002
Source: Japan (JPN)
Launch site: TANEGASHIMA SPACE CENTER (TNSTA)
aabbcc
Your satellite tracking list
Your tracking list is empty




NASA's NSSDC Master Catalog

Two Line Element Set (TLE):
1 27599U 02056C   18144.87597533  .00000000  00000-0  16659-4 0  9991
2 27599  98.4411  98.6703 0009167 323.3165  36.7389 14.29423062805462
Source of the keplerian elements: AFSPC